| time (UTC) | temp F | wind direction | speed MPH | gust MPH | rain 1hr in | rain 24hr in | rain mn in | humidity % | barometer mb |
| 20260507130350 | 61 | 241 | 1.0 | 11.0 | 0.00 | 0.00 | 0.00 | 24 | 1017.5 |
| 20260507125334 | 61 | 234 | 2.0 | 11.0 | 0.00 | 0.00 | 0.00 | 23 | 1017.4 |
| 20260507124833 | 61 | 201 | 2.0 | 11.0 | 0.00 | 0.00 | 0.00 | 22 | 1017.5 |
| 20260507124332 | 60 | 196 | 1.0 | 11.0 | 0.00 | 0.00 | 0.00 | 22 | 1017.6 |
| 20260507123831 | 60 | 231 | 1.0 | 11.0 | 0.00 | 0.00 | 0.00 | 22 | 1017.6 |
| 20260507123330 | 60 | 249 | 2.0 | 11.0 | 0.00 | 0.00 | 0.00 | 24 | 1017.5 |
| 20260507122829 | 60 | 238 | 2.0 | 11.0 | 0.00 | 0.00 | 0.00 | 22 | 1017.2 |
| 20260507122328 | 60 | 180 | 1.0 | 11.0 | 0.00 | 0.00 | 0.00 | 22 | 1017.8 |
| 20260507121828 | 60 | 272 | 1.0 | 11.0 | 0.00 | 0.00 | 0.00 | 23 | 1017.6 |
| 20260507121327 | 60 | 201 | 1.0 | 11.0 | 0.00 | 0.00 | 0.00 | 22 | 1017.2 |
| 20260507120827 | 59 | 233 | 2.0 | 11.0 | 0.00 | 0.00 | 0.00 | 21 | 1017.8 |
| 20260507120327 | 60 | 259 | 2.0 | 11.0 | 0.00 | 0.00 | 0.00 | 22 | 1017.4 |
| 20260507115827 | 60 | 201 | 1.0 | 11.0 | 0.00 | 0.00 | 0.00 | 21 | 1017.4 |
| 20260507115327 | 60 | 27 | 1.0 | 11.0 | 0.00 | 0.00 | 0.00 | 20 | 1017.6 |
| 20260507114826 | 60 | 168 | 1.0 | 11.0 | 0.00 | 0.00 | 0.00 | 19 | 1017.3 |
| 20260507114326 | 60 | 175 | 2.0 | 11.0 | 0.00 | 0.00 | 0.00 | 21 | 1017.5 |
| 20260507113825 | 60 | 158 | 1.0 | 11.0 | 0.00 | 0.00 | 0.00 | 21 | 1017.4 |
| 20260507113324 | 59 | 179 | 0.0 | 11.0 | 0.00 | 0.00 | 0.00 | 22 | 1017.6 |
| 20260507112824 | 58 | 185 | 3.0 | 11.0 | 0.00 | 0.00 | 0.00 | 20 | 1017.3 |
| 20260507112323 | 58 | 188 | 2.0 | 11.0 | 0.00 | 0.00 | 0.00 | 22 | 1017.6 |
| 20260507111822 | 58 | 177 | 2.0 | 11.0 | 0.00 | 0.00 | 0.00 | 23 | 1017.5 |
| 20260507111322 | 58 | 216 | 2.0 | 11.0 | 0.00 | 0.00 | 0.00 | 22 | 1017.5 |
| 20260507110821 | 58 | 241 | 3.0 | 11.0 | 0.00 | 0.00 | 0.00 | 23 | 1017.3 |
| 20260507110320 | 58 | 42 | 1.0 | 11.0 | 0.00 | 0.00 | 0.00 | 26 | 1017.9 |
| 20260507105820 | 58 | 299 | 3.0 | 11.0 | 0.00 | 0.00 | 0.00 | 24 | 1017.5 |
| 20260507105319 | 58 | 144 | 0.0 | 11.0 | 0.00 | 0.00 | 0.00 | 24 | 1017.1 |
| 20260507104302 | 57 | 306 | 1.0 | 11.0 | 0.00 | 0.00 | 0.00 | 26 | 1017.5 |
| 20260507103800 | 57 | 282 | 2.0 | 11.0 | 0.00 | 0.00 | 0.00 | 24 | 1017.4 |
| 20260507103300 | 58 | 289 | 2.0 | 11.0 | 0.00 | 0.00 | 0.00 | 25 | 1017.6 |
| 20260507102244 | 58 | 12 | 1.0 | 11.0 | 0.00 | 0.00 | 0.00 | 29 | 1017.3 |
| 20260507101744 | 57 | 252 | 1.0 | 11.0 | 0.00 | 0.00 | 0.00 | 31 | 1017.4 |
| 20260507101243 | 57 | 212 | 2.0 | 11.0 | 0.00 | 0.00 | 0.00 | 28 | 1017.5 |
| 20260507100741 | 57 | 305 | 0.0 | 11.0 | 0.00 | 0.00 | 0.00 | 30 | 1017.5 |
| 20260507100241 | 57 | 241 | 1.0 | 11.0 | 0.00 | 0.00 | 0.00 | 30 | 1017.4 |
| 20260507095740 | 57 | 98 | 1.0 | 11.0 | 0.00 | 0.00 | 0.00 | 28 | 1017.3 |
| 20260507095239 | 56 | 243 | 1.0 | 11.0 | 0.00 | 0.00 | 0.00 | 29 | 1017.6 |
| 20260507094738 | 56 | 293 | 1.0 | 11.0 | 0.00 | 0.00 | 0.00 | 30 | 1017.3 |
| 20260507093721 | 56 | 327 | 2.0 | 11.0 | 0.00 | 0.00 | 0.00 | 28 | 1017.3 |
| 20260507093220 | 55 | 34 | 0.0 | 11.0 | 0.00 | 0.00 | 0.00 | 29 | 1017.4 |
| 20260507092719 | 55 | 303 | 1.0 | 11.0 | 0.00 | 0.00 | 0.00 | 28 | 1017.2 |
| 20260507091703 | 54 | 222 | 1.0 | 11.0 | 0.00 | 0.00 | 0.00 | 26 | 1017.3 |
| 20260507091203 | 54 | 272 | 1.0 | 11.0 | 0.00 | 0.00 | 0.00 | 31 | 1017.5 |
| 20260507090702 | 54 | 233 | 0.0 | 11.0 | 0.00 | 0.00 | 0.00 | 34 | 1017.4 |
| 20260507090202 | 54 | 220 | 1.0 | 11.0 | 0.00 | 0.00 | 0.00 | 35 | 1017.3 |
| 20260507085702 | 54 | 280 | 0.0 | 11.0 | 0.00 | 0.00 | 0.00 | 33 | 1017.5 |
| 20260507085200 | 54 | 148 | 1.0 | 11.0 | 0.00 | 0.00 | 0.00 | 32 | 1017.7 |
| 20260507084700 | 53 | 272 | 1.0 | 11.0 | 0.00 | 0.00 | 0.00 | 34 | 1017.5 |
| 20260507084200 | 53 | 245 | 1.0 | 11.0 | 0.00 | 0.00 | 0.00 | 34 | 1017.4 |
| 20260507083700 | 52 | 241 | 2.0 | 11.0 | 0.00 | 0.00 | 0.00 | 32 | 1017.6 |
| 20260507083200 | 53 | 256 | 0.0 | 11.0 | 0.00 | 0.00 | 0.00 | 34 | 1017.3 |
| 20260507082145 | 53 | 204 | 1.0 | 11.0 | 0.00 | 0.00 | 0.00 | 35 | 1017.0 |
| 20260507081644 | 52 | 245 | 1.0 | 11.0 | 0.00 | 0.00 | 0.00 | 33 | 1017.2 |
| 20260507081142 | 52 | 243 | 1.0 | 11.0 | 0.00 | 0.00 | 0.00 | 34 | 1017.1 |
| 20260507080642 | 52 | 276 | 1.0 | 11.0 | 0.00 | 0.00 | 0.00 | 34 | 1017.0 |
| 20260507080141 | 52 | 221 | 0.0 | 11.0 | 0.00 | 0.00 | 0.00 | 35 | 1016.9 |
| 20260507075641 | 52 | 344 | 1.0 | 11.0 | 0.00 | 0.00 | 0.00 | 35 | 1017.1 |
| 20260507075141 | 51 | 227 | 1.0 | 11.0 | 0.00 | 0.00 | 0.00 | 36 | 1017.1 |
| 20260507074640 | 50 | 269 | 1.0 | 11.0 | 0.00 | 0.00 | 0.00 | 34 | 1017.0 |
| 20260507074139 | 51 | 249 | 1.0 | 11.0 | 0.00 | 0.00 | 0.00 | 34 | 1017.0 |
| 20260507073123 | 51 | 330 | 1.0 | 11.0 | 0.00 | 0.00 | 0.00 | 39 | 1017.0 |
| 20260507072622 | 50 | 338 | 0.0 | 11.0 | 0.00 | 0.00 | 0.00 | 39 | 1017.1 |
| 20260507072122 | 51 | 340 | 1.0 | 11.0 | 0.00 | 0.00 | 0.00 | 39 | 1017.1 |
| 20260507071621 | 50 | 165 | 0.0 | 11.0 | 0.00 | 0.00 | 0.00 | 42 | 1017.3 |
| 20260507071120 | 49 | 298 | 1.0 | 11.0 | 0.00 | 0.00 | 0.00 | 44 | 1017.1 |
| 20260507070619 | 49 | 298 | 0.0 | 11.0 | 0.00 | 0.00 | 0.00 | 46 | 1017.2 |
| 20260507065603 | 48 | 297 | 0.0 | 11.0 | 0.00 | 0.00 | 0.00 | 48 | 1016.9 |
| 20260507065103 | 48 | 252 | 1.0 | 11.0 | 0.00 | 0.00 | 0.00 | 47 | 1017.1 |
| 20260507064603 | 48 | 228 | 1.0 | 11.0 | 0.00 | 0.00 | 0.00 | 49 | 1017.0 |
| 20260507064102 | 48 | 231 | 1.0 | 11.0 | 0.00 | 0.00 | 0.00 | 50 | 1016.9 |
| 20260507063602 | 48 | 227 | 1.0 | 11.0 | 0.00 | 0.00 | 0.00 | 50 | 1016.7 |
| 20260507063101 | 49 | 227 | 0.0 | 11.0 | 0.00 | 0.00 | 0.00 | 55 | 1017.0 |
| 20260507062601 | 48 | 224 | 0.0 | 11.0 | 0.00 | 0.00 | 0.00 | 57 | 1017.0 |
| 20260507062101 | 48 | 224 | 0.0 | 11.0 | 0.00 | 0.00 | 0.00 | 57 | 1016.6 |
| 20260507061044 | 47 | 234 | 0.0 | 11.0 | 0.00 | 0.00 | 0.00 | 59 | 1016.9 |
| 20260507060544 | 47 | 232 | 0.0 | 11.0 | 0.00 | 0.00 | 0.00 | 59 | 1017.0 |
| 20260507060044 | 46 | 232 | 0.0 | 11.0 | 0.00 | 0.00 | 0.00 | 60 | 1017.1 |
| 20260507055544 | 46 | 232 | 0.0 | 11.0 | 0.00 | 0.00 | 0.00 | 61 | 1017.0 |
| 20260507055044 | 45 | 232 | 0.0 | 11.0 | 0.00 | 0.00 | 0.00 | 63 | 1016.7 |
| 20260507054544 | 44 | 232 | 0.0 | 11.0 | 0.00 | 0.00 | 0.00 | 67 | 1016.9 |
| 20260507054043 | 43 | 232 | 0.0 | 11.0 | 0.00 | 0.00 | 0.00 | 66 | 1017.0 |
| 20260507053543 | 43 | 232 | 0.0 | 11.0 | 0.00 | 0.00 | 0.00 | 69 | 1016.9 |
| 20260507053043 | 43 | 232 | 0.0 | 11.0 | 0.00 | 0.00 | 0.00 | 71 | 1017.0 |
| 20260507052543 | 42 | 232 | 0.0 | 11.0 | 0.00 | 0.00 | 0.00 | 73 | 1017.0 |
| 20260507052043 | 41 | 232 | 0.0 | 11.0 | 0.00 | 0.00 | 0.00 | 73 | 1016.9 |
| 20260507051543 | 40 | 232 | 0.0 | 11.0 | 0.00 | 0.00 | 0.00 | 75 | 1017.1 |
| 20260507050527 | 39 | 232 | 0.0 | 11.0 | 0.00 | 0.00 | 0.00 | 75 | 1016.7 |
| 20260507050026 | 39 | 232 | 0.0 | 11.0 | 0.00 | 0.00 | 0.00 | 76 | 1017.0 |
| 20260507045526 | 39 | 232 | 0.0 | 11.0 | 0.00 | 0.00 | 0.00 | 77 | 1017.1 |
| 20260507045025 | 38 | 232 | 0.0 | 11.0 | 0.00 | 0.00 | 0.00 | 77 | 1017.2 |
| 20260507044009 | 38 | 232 | 0.0 | 11.0 | 0.00 | 0.00 | 0.00 | 81 | 1016.9 |
| 20260507043509 | 37 | 232 | 0.0 | 11.0 | 0.00 | 0.00 | 0.00 | 81 | 1016.9 |
| 20260507043008 | 37 | 232 | 0.0 | 11.0 | 0.00 | 0.00 | 0.00 | 81 | 1016.8 |
| 20260507042507 | 37 | 232 | 0.0 | 11.0 | 0.00 | 0.00 | 0.00 | 81 | 1016.8 |
| 20260507042006 | 37 | 232 | 0.0 | 11.0 | 0.00 | 0.00 | 0.00 | 82 | 1016.7 |
| 20260507041505 | 36 | 232 | 0.0 | 11.0 | 0.00 | 0.00 | 0.00 | 82 | 1016.8 |
| 20260507041005 | 36 | 232 | 0.0 | 11.0 | 0.00 | 0.00 | 0.00 | 82 | 1016.9 |
| 20260507040505 | 36 | 232 | 0.0 | 11.0 | 0.00 | 0.00 | 0.00 | 81 | 1016.9 |
| 20260507040004 | 36 | 232 | 0.0 | 11.0 | 0.00 | 0.00 | 0.00 | 81 | 1016.8 |
| 20260507035504 | 36 | 232 | 0.0 | 11.0 | 0.00 | 0.00 | 0.00 | 80 | 1016.6 |
| 20260507035004 | 37 | 232 | 0.0 | 11.0 | 0.00 | 0.00 | 0.00 | 80 | 1016.6 |
| 20260507034505 | 37 | 232 | 0.0 | 11.0 | 0.00 | 0.00 | 0.00 | 80 | 1016.8 |
| 20260507034004 | 37 | 232 | 0.0 | 11.0 | 0.00 | 0.00 | 0.00 | 80 | 1016.2 |
| 20260507033504 | 37 | 232 | 0.0 | 11.0 | 0.00 | 0.00 | 0.00 | 80 | 1016.5 |
| 20260507033004 | 37 | 232 | 0.0 | 11.0 | 0.00 | 0.00 | 0.00 | 81 | 1016.4 |
| 20260507032504 | 36 | 233 | 1.0 | 11.0 | 0.00 | 0.00 | 0.00 | 82 | 1016.1 |
| 20260507032002 | 36 | 223 | 1.0 | 11.0 | 0.00 | 0.00 | 0.00 | 85 | 1016.4 |
| 20260507031501 | 35 | 213 | 0.0 | 11.0 | 0.00 | 0.00 | 0.00 | 87 | 1016.3 |
| 20260507031000 | 34 | 225 | 1.0 | 11.0 | 0.00 | 0.00 | 0.00 | 88 | 1016.2 |
| 20260507030459 | 34 | 230 | 0.0 | 11.0 | 0.00 | 0.00 | 0.00 | 87 | 1016.2 |
| 20260507025959 | 34 | 230 | 1.0 | 11.0 | 0.00 | 0.00 | 0.00 | 88 | 1016.3 |
| 20260507025458 | 34 | 210 | 1.0 | 11.0 | 0.00 | 0.00 | 0.00 | 88 | 1016.4 |
| 20260507024958 | 34 | 209 | 1.0 | 11.0 | 0.00 | 0.00 | 0.00 | 87 | 1016.2 |
| 20260507023943 | 34 | 209 | 0.0 | 11.0 | 0.00 | 0.00 | 0.00 | 87 | 1016.2 |
| 20260507023443 | 34 | 209 | 0.0 | 11.0 | 0.00 | 0.00 | 0.00 | 87 | 1016.3 |
| 20260507021912 | 35 | 209 | 0.0 | 11.0 | 0.00 | 0.00 | 0.00 | 85 | 1015.9 |
| 20260507021412 | 35 | 209 | 0.0 | 11.0 | 0.00 | 0.00 | 0.00 | 85 | 1016.3 |
| 20260507020912 | 35 | 209 | 0.0 | 11.0 | 0.00 | 0.00 | 0.00 | 84 | 1016.2 |
| 20260507020412 | 35 | 209 | 0.0 | 11.0 | 0.00 | 0.00 | 0.00 | 84 | 1016.1 |
| 20260507015911 | 36 | 209 | 0.0 | 11.0 | 0.00 | 0.00 | 0.00 | 83 | 1016.2 |
| 20260507015411 | 36 | 209 | 0.0 | 11.0 | 0.00 | 0.00 | 0.00 | 83 | 1016.1 |
| 20260507014911 | 37 | 209 | 0.0 | 11.0 | 0.00 | 0.00 | 0.00 | 82 | 1016.4 |
| 20260507014411 | 37 | 209 | 0.0 | 11.0 | 0.00 | 0.00 | 0.00 | 82 | 1016.1 |
| 20260507013911 | 37 | 209 | 0.0 | 11.0 | 0.00 | 0.00 | 0.00 | 82 | 1016.2 |
| 20260507013410 | 37 | 209 | 0.0 | 11.0 | 0.00 | 0.00 | 0.00 | 82 | 1016.0 |
| 20260507012910 | 38 | 209 | 0.0 | 11.0 | 0.00 | 0.00 | 0.00 | 81 | 1015.9 |
| 20260507012409 | 38 | 209 | 0.0 | 11.0 | 0.00 | 0.00 | 0.00 | 80 | 1016.0 |
| 20260507011353 | 38 | 209 | 0.0 | 11.0 | 0.00 | 0.00 | 0.00 | 80 | 1016.0 |
| 20260507010853 | 39 | 209 | 0.0 | 11.0 | 0.00 | 0.00 | 0.00 | 80 | 1016.1 |
| 20260507010352 | 39 | 209 | 0.0 | 11.0 | 0.00 | 0.00 | 0.00 | 79 | 1015.9 |
| 20260507005852 | 39 | 209 | 0.0 | 11.0 | 0.00 | 0.00 | 0.00 | 79 | 1015.9 |
| 20260507005352 | 39 | 209 | 0.0 | 11.0 | 0.00 | 0.00 | 0.00 | 79 | 1015.6 |
| 20260507004851 | 40 | 209 | 0.0 | 11.0 | 0.00 | 0.00 | 0.00 | 78 | 1015.9 |
| 20260507004351 | 40 | 209 | 0.0 | 11.0 | 0.00 | 0.00 | 0.00 | 77 | 1015.7 |
| 20260507003850 | 40 | 209 | 0.0 | 11.0 | 0.00 | 0.00 | 0.00 | 77 | 1015.6 |
| 20260507002835 | 42 | 209 | 0.0 | 11.0 | 0.00 | 0.00 | 0.00 | 76 | 1015.4 |
| 20260507002335 | 42 | 209 | 0.0 | 11.0 | 0.00 | 0.00 | 0.00 | 77 | 1015.4 |
| 20260507001834 | 42 | 142 | 0.0 | 11.0 | 0.00 | 0.00 | 0.00 | 77 | 1015.5 |
| 20260507001334 | 42 | 116 | 0.0 | 11.0 | 0.00 | 0.00 | 0.00 | 76 | 1015.9 |
| 20260507000321 | 42 | 116 | 0.0 | 11.0 | 0.00 | 0.00 | 0.00 | 75 | 1015.8 |
| 20260506235306 | 43 | 116 | 0.0 | 11.0 | 0.00 | 0.00 | 0.00 | 74 | 1015.4 |
| 20260506234802 | 43 | 116 | 0.0 | 11.0 | 0.00 | 0.00 | 0.00 | 74 | 1015.3 |
| 20260506234301 | 43 | 116 | 0.0 | 11.0 | 0.00 | 0.00 | 0.00 | 74 | 1015.5 |
| 20260506233800 | 43 | 116 | 0.0 | 11.0 | 0.00 | 0.00 | 0.00 | 74 | 1015.3 |
| 20260506233300 | 43 | 116 | 0.0 | 11.0 | 0.00 | 0.00 | 0.00 | 74 | 1015.7 |
| 20260506232800 | 43 | 116 | 0.0 | 11.0 | 0.00 | 0.00 | 0.00 | 74 | 1015.7 |
| 20260506232300 | 43 | 116 | 0.0 | 11.0 | 0.00 | 0.00 | 0.00 | 74 | 1015.5 |
| 20260506231800 | 43 | 117 | 0.0 | 11.0 | 0.00 | 0.00 | 0.00 | 73 | 1015.7 |
| 20260506230744 | 43 | 117 | 0.0 | 11.0 | 0.00 | 0.00 | 0.00 | 73 | 1015.5 |
| 20260506230244 | 43 | 117 | 0.0 | 11.0 | 0.00 | 0.00 | 0.00 | 72 | 1015.3 |
| 20260506225744 | 43 | 117 | 0.0 | 11.0 | 0.00 | 0.00 | 0.00 | 71 | 1015.3 |
| 20260506225244 | 43 | 117 | 0.0 | 11.0 | 0.00 | 0.00 | 0.00 | 72 | 1015.4 |
| 20260506224229 | 43 | 117 | 0.0 | 11.0 | 0.00 | 0.00 | 0.00 | 70 | 1015.4 |
| 20260506223213 | 43 | 94 | 0.0 | 11.0 | 0.00 | 0.00 | 0.00 | 70 | 1015.4 |
| 20260506222712 | 43 | 99 | 0.0 | 11.0 | 0.00 | 0.00 | 0.00 | 70 | 1015.0 |
| 20260506221656 | 43 | 114 | 0.0 | 11.0 | 0.00 | 0.00 | 0.00 | 71 | 1015.3 |
| 20260506221156 | 43 | 119 | 0.0 | 11.0 | 0.00 | 0.00 | 0.00 | 71 | 1015.4 |
| 20260506220655 | 44 | 145 | 1.0 | 11.0 | 0.00 | 0.00 | 0.00 | 72 | 1015.4 |
| 20260506220154 | 44 | 105 | 1.0 | 11.0 | 0.00 | 0.00 | 0.00 | 73 | 1015.1 |
| 20260506215654 | 44 | 76 | 1.0 | 11.0 | 0.00 | 0.00 | 0.00 | 74 | 1015.0 |
| 20260506214639 | 44 | 142 | 0.0 | 11.0 | 0.00 | 0.00 | 0.00 | 73 | 1014.8 |
| 20260506214139 | 45 | 142 | 0.0 | 11.0 | 0.00 | 0.00 | 0.00 | 74 | 1014.9 |
| 20260506213639 | 45 | 142 | 0.0 | 11.0 | 0.00 | 0.00 | 0.00 | 73 | 1014.9 |
| 20260506212624 | 45 | 94 | 1.0 | 11.0 | 0.00 | 0.00 | 0.00 | 72 | 1014.8 |
| 20260506211608 | 46 | 94 | 0.0 | 11.0 | 0.00 | 0.00 | 0.00 | 71 | 1014.6 |
| 20260506211108 | 46 | 94 | 0.0 | 11.0 | 0.00 | 0.00 | 0.00 | 70 | 1014.6 |
| 20260506210052 | 46 | 94 | 0.0 | 11.0 | 0.00 | 0.00 | 0.00 | 69 | 1014.5 |
| 20260506205552 | 47 | 94 | 0.0 | 11.0 | 0.00 | 0.00 | 0.00 | 69 | 1014.5 |
| 20260506205052 | 47 | 94 | 0.0 | 11.0 | 0.00 | 0.00 | 0.00 | 68 | 1014.4 |
| 20260506204552 | 47 | 172 | 1.0 | 11.0 | 0.00 | 0.00 | 0.00 | 68 | 1014.5 |
| 20260506204052 | 47 | 172 | 0.0 | 11.0 | 0.00 | 0.00 | 0.00 | 67 | 1014.3 |
| 20260506203551 | 48 | 172 | 0.0 | 11.0 | 0.00 | 0.00 | 0.00 | 67 | 1014.8 |
| 20260506203051 | 48 | 172 | 0.0 | 11.0 | 0.00 | 0.00 | 0.00 | 66 | 1014.7 |
| 20260506202035 | 48 | 175 | 0.0 | 11.0 | 0.00 | 0.00 | 0.00 | 65 | 1014.4 |
| 20260506201535 | 49 | 175 | 0.0 | 11.0 | 0.00 | 0.00 | 0.00 | 65 | 1014.4 |
| 20260506201034 | 49 | 175 | 0.0 | 11.0 | 0.00 | 0.00 | 0.00 | 64 | 1014.5 |
| 20260506200533 | 49 | 175 | 0.0 | 11.0 | 0.00 | 0.00 | 0.00 | 64 | 1014.4 |
| 20260506200033 | 49 | 175 | 0.0 | 11.0 | 0.00 | 0.00 | 0.00 | 63 | 1014.5 |
| 20260506195532 | 49 | 175 | 0.0 | 11.0 | 0.00 | 0.00 | 0.00 | 63 | 1014.5 |
| 20260506195031 | 50 | 210 | 0.0 | 11.0 | 0.00 | 0.00 | 0.00 | 63 | 1014.0 |
| 20260506194530 | 50 | 210 | 1.0 | 11.0 | 0.00 | 0.00 | 0.00 | 63 | 1014.3 |
| 20260506193515 | 50 | 211 | 0.0 | 11.0 | 0.00 | 0.00 | 0.00 | 62 | 1014.5 |
| 20260506193014 | 50 | 119 | 1.0 | 11.0 | 0.00 | 0.00 | 0.00 | 62 | 1014.3 |
| 20260506192513 | 50 | 139 | 1.0 | 11.0 | 0.00 | 0.00 | 0.00 | 62 | 1014.1 |
| 20260506192014 | 50 | 149 | 1.0 | 11.0 | 0.00 | 0.00 | 0.00 | 62 | 1014.3 |
| 20260506191513 | 50 | 228 | 0.0 | 11.0 | 0.00 | 0.00 | 0.00 | 61 | 1013.8 |
| 20260506191013 | 50 | 109 | 0.0 | 11.0 | 0.00 | 0.00 | 0.00 | 61 | 1013.9 |
| 20260506185957 | 51 | 111 | 1.0 | 11.0 | 0.00 | 0.00 | 0.00 | 60 | 1013.9 |
| 20260506184941 | 51 | 112 | 1.0 | 11.0 | 0.00 | 0.00 | 0.00 | 59 | 1013.6 |
| 20260506184441 | 51 | 120 | 1.0 | 11.0 | 0.00 | 0.00 | 0.00 | 59 | 1013.8 |
| 20260506183940 | 52 | 128 | 1.0 | 11.0 | 0.00 | 0.00 | 0.00 | 58 | 1013.6 |
| 20260506183439 | 52 | 128 | 2.0 | 11.0 | 0.00 | 0.00 | 0.00 | 58 | 1013.6 |
| 20260506182939 | 52 | 127 | 3.0 | 11.0 | 0.00 | 0.00 | 0.00 | 57 | 1013.6 |
| 20260506181923 | 53 | 136 | 2.0 | 11.0 | 0.00 | 0.00 | 0.00 | 56 | 1013.4 |
| 20260506181423 | 53 | 140 | 0.0 | 11.0 | 0.00 | 0.00 | 0.00 | 55 | 1013.3 |
| 20260506180922 | 53 | 106 | 3.0 | 11.0 | 0.00 | 0.00 | 0.00 | 55 | 1013.4 |
| 20260506180421 | 53 | 117 | 4.0 | 11.0 | 0.00 | 0.00 | 0.00 | 54 | 1013.4 |
| 20260506175921 | 54 | 127 | 3.0 | 11.0 | 0.00 | 0.00 | 0.00 | 54 | 1013.1 |
| 20260506175422 | 54 | 123 | 2.0 | 11.0 | 0.00 | 0.00 | 0.00 | 53 | 1013.1 |
| 20260506174920 | 54 | 127 | 3.0 | 11.0 | 0.00 | 0.00 | 0.00 | 52 | 1013.1 |
| 20260506174420 | 54 | 137 | 2.0 | 11.0 | 0.00 | 0.00 | 0.00 | 52 | 1012.8 |
| 20260506173920 | 55 | 134 | 3.0 | 11.0 | 0.00 | 0.00 | 0.00 | 51 | 1013.0 |
| 20260506173421 | 55 | 107 | 3.0 | 11.0 | 0.00 | 0.00 | 0.00 | 50 | 1013.2 |
| 20260506172921 | 55 | 88 | 1.0 | 11.0 | 0.00 | 0.00 | 0.00 | 50 | 1013.1 |
| 20260506172419 | 55 | 87 | 1.0 | 11.0 | 0.00 | 0.00 | 0.00 | 50 | 1013.0 |
| 20260506171919 | 55 | 116 | 3.0 | 11.0 | 0.00 | 0.00 | 0.00 | 49 | 1013.3 |
| 20260506171420 | 55 | 138 | 3.0 | 11.0 | 0.00 | 0.00 | 0.00 | 49 | 1012.8 |
| 20260506170918 | 55 | 138 | 2.0 | 11.0 | 0.00 | 0.00 | 0.00 | 49 | 1013.2 |
| 20260506165903 | 56 | 133 | 3.0 | 11.0 | 0.00 | 0.00 | 0.00 | 48 | 1013.2 |
| 20260506165402 | 56 | 113 | 2.0 | 11.0 | 0.00 | 0.00 | 0.00 | 48 | 1012.9 |
| 20260506164902 | 56 | 116 | 2.0 | 11.0 | 0.00 | 0.00 | 0.00 | 47 | 1013.1 |
| 20260506164401 | 56 | 116 | 3.0 | 11.0 | 0.00 | 0.00 | 0.00 | 47 | 1012.9 |
| 20260506163901 | 56 | 125 | 2.0 | 11.0 | 0.00 | 0.00 | 0.00 | 47 | 1012.9 |
| 20260506163401 | 56 | 135 | 1.0 | 11.0 | 0.00 | 0.00 | 0.00 | 48 | 1013.1 |
| 20260506162900 | 56 | 142 | 1.0 | 11.0 | 0.00 | 0.00 | 0.00 | 47 | 1012.9 |
| 20260506162359 | 56 | 119 | 2.0 | 11.0 | 0.00 | 0.00 | 0.00 | 46 | 1012.7 |
| 20260506161900 | 56 | 141 | 2.0 | 11.0 | 0.00 | 0.00 | 0.00 | 46 | 1012.9 |
| 20260506161358 | 56 | 95 | 2.0 | 11.0 | 0.00 | 0.00 | 0.00 | 46 | 1013.0 |
| 20260506160859 | 56 | 111 | 2.0 | 11.0 | 0.00 | 0.00 | 0.00 | 45 | 1012.8 |
| 20260506160359 | 56 | 95 | 2.0 | 11.0 | 0.00 | 0.00 | 0.00 | 44 | 1012.9 |
| 20260506155858 | 56 | 114 | 2.0 | 11.0 | 0.00 | 0.00 | 0.00 | 43 | 1013.0 |
| 20260506155358 | 56 | 102 | 2.0 | 11.0 | 0.00 | 0.00 | 0.00 | 43 | 1012.9 |
| 20260506154341 | 56 | 116 | 3.0 | 11.0 | 0.00 | 0.00 | 0.00 | 41 | 1012.8 |
| 20260506153841 | 56 | 111 | 3.0 | 11.0 | 0.00 | 0.00 | 0.00 | 41 | 1012.9 |
| 20260506153340 | 56 | 120 | 3.0 | 11.0 | 0.00 | 0.00 | 0.00 | 41 | 1012.7 |
| 20260506152839 | 56 | 72 | 1.0 | 11.0 | 0.00 | 0.00 | 0.00 | 40 | 1013.0 |
| 20260506152339 | 56 | 111 | 2.0 | 11.0 | 0.00 | 0.00 | 0.00 | 41 | 1012.8 |
| 20260506151837 | 56 | 91 | 2.0 | 11.0 | 0.00 | 0.00 | 0.00 | 40 | 1012.9 |
| 20260506151337 | 57 | 87 | 2.0 | 11.0 | 0.00 | 0.00 | 0.00 | 39 | 1012.9 |
| 20260506150837 | 57 | 91 | 0.0 | 11.0 | 0.00 | 0.00 | 0.00 | 38 | 1012.9 |
| 20260506150337 | 57 | 57 | 2.0 | 11.0 | 0.00 | 0.00 | 0.00 | 37 | 1012.8 |
| 20260506145836 | 57 | 109 | 2.0 | 11.0 | 0.00 | 0.00 | 0.00 | 37 | 1012.7 |
| 20260506145336 | 57 | 105 | 1.0 | 11.0 | 0.00 | 0.00 | 0.00 | 36 | 1012.9 |
| 20260506144835 | 57 | 148 | 2.0 | 11.0 | 0.00 | 0.00 | 0.00 | 37 | 1012.9 |
| 20260506144335 | 57 | 96 | 0.0 | 11.0 | 0.00 | 0.00 | 0.00 | 36 | 1012.9 |
| 20260506143835 | 57 | 104 | 0.0 | 11.0 | 0.00 | 0.00 | 0.00 | 36 | 1013.0 |
| 20260506143334 | 57 | 112 | 3.0 | 11.0 | 0.00 | 0.00 | 0.00 | 36 | 1012.5 |
| 20260506142834 | 57 | 90 | 1.0 | 11.0 | 0.00 | 0.00 | 0.00 | 36 | 1012.7 |
| 20260506142333 | 57 | 70 | 2.0 | 11.0 | 0.00 | 0.00 | 0.00 | 36 | 1012.9 |
| 20260506141834 | 57 | 96 | 2.0 | 11.0 | 0.00 | 0.00 | 0.00 | 37 | 1012.9 |
| 20260506140818 | 58 | 102 | 2.0 | 11.0 | 0.00 | 0.00 | 0.00 | 34 | 1013.1 |
| 20260506140317 | 58 | 27 | 1.0 | 11.0 | 0.00 | 0.00 | 0.00 | 34 | 1012.6 |
| 20260506135817 | 58 | 50 | 1.0 | 11.0 | 0.00 | 0.00 | 0.00 | 33 | 1012.7 |
| 20260506135317 | 58 | 58 | 1.0 | 11.0 | 0.00 | 0.00 | 0.00 | 35 | 1012.7 |
| 20260506134816 | 58 | 73 | 0.0 | 11.0 | 0.00 | 0.00 | 0.00 | 34 | 1012.9 |
| 20260506134315 | 58 | 81 | 1.0 | 11.0 | 0.00 | 0.00 | 0.00 | 34 | 1012.8 |
| 20260506133814 | 58 | 148 | 1.0 | 11.0 | 0.00 | 0.00 | 0.00 | 33 | 1012.6 |
| 20260506133313 | 58 | 43 | 1.0 | 11.0 | 0.00 | 0.00 | 0.00 | 33 | 1012.7 |
| 20260506132258 | 58 | 119 | 2.0 | 11.0 | 0.00 | 0.00 | 0.00 | 34 | 1012.9 |
| 20260506131758 | 58 | 168 | 0.0 | 11.0 | 0.00 | 0.00 | 0.00 | 33 | 1012.7 |
| 20260506131258 | 58 | 166 | 1.0 | 11.0 | 0.00 | 0.00 | 0.00 | 32 | 1012.8 |
| 20260506130758 | 58 | 70 | 1.0 | 11.0 | 0.00 | 0.00 | 0.00 | 33 | 1012.7 |